IUS R/B(2), 26883

Orbit data source: Space-Track

IUS R/B(2), 26883 is space debris in GEO originally from a launch on Mon, 06 Aug 2001 UTC launched from the Air Force Eastern Test Range (AFETR). Debris objects in space refer to the collection of defunct objects orbiting the Earth. Examples of debris include non-operational satellites, rocket bodies, and fragments generated from explosions, collisions, or faulty payload assembly.

Not visible in the next 10 days
Identifier
26883, 2001-033D
Orbit
GEO
Country
Flag of USUS
Related business
Manufacturer
PW CSD
Mission
Spacecraft
Bus & Motor
ORBUS 6, ORBUS 6
Mass
1,079 kg wet, 1,079 kg dry
Launch date (UTC)
2001-08-06 (25 years ago)
Launch vehicle
Unknown
Launch site
Air Force Eastern Test Range (AFETR)
Object type
Payload
Rocket body
Debris
Shape & HBR
Cyl, 1.8 m
Radar Cross Section
8.086 m², Medium (>0.1 m² and < 1m²)

Expand to show TLE details & history
Last TLE update: 16 hours ago

TLE from 16 hours ago
0 IUS R/B(2)
1 26883U 01033D   26262.82705455 -.00000067  00000-0  00000+0 0  9991
2 26883  13.0150  16.0371 0006311  10.0892 349.9556  0.99884887 26738
Epoch: 2026-09-19T19:50Z
TLE epoch observation values (Epoch: 2026-09-19T19:50:57.513Z)
Latitude
0.00001°
Longitude
79.57877°
Altitude
35,868.619 km
Speed
3.073 km/s
True Right ascension
01h 04m 11s
True Declination
0° 00' 00"
Sunlit
Object was in daylight at epoch
Visualization orbit readout
Latitude
Unknown
Longitude
Unknown
Altitude
Unknown
Speed
Unknown
Apparent Right ascension
Unknown
Apparent Declination
Unknown
Sunlit
N/A
Visualization observer readout
Local Sidereal Time
04:41:58
Azimuth
Unknown
Elevation
Unknown
Doppler factor
Unknown
Orbital elements
Apogee altitude
35,923.074 km
Perigee altitude
35,869.716 km
Semi-major axis
42,274.532 km
Eccentricity
0.00063
Inclination
13.015°
RAAN
16.0371°
Arg. of periapsis
10.0892°
True anomaly
349.94298°
Mean anomaly
349.9556°
Eccentric anomaly
349.94929°
Mean motion
0.2497 °/min
Orbital period
1,441.71 mins
BSTAR
0
Loading maneuver chart data...
Computing Atmospheric mass density...
Loading historical data...
Loading historical data...
Loading historical data...
Loading historical data...
Loading historical data...
Loading historical data...
Loading historical data...
Other satellites on launch #33 in the year 2001 (2001-08-06 UTC)

Documentation

Showing up to 5 results
|